This is the latest recevied weather packets stored in our database for station/object KJ5BMY-13. If no packets are shown the sender has not sent any weather packets the latest 1 day(s).
| Time | Temp. | Humidity | Pressure | Rain* | Wind** | Luminosity | Snow |
|---|---|---|---|---|---|---|---|
| 1778012173 | 33.33° C | 55% | 1006.5 hPa | 0 mm | 1.34 m/s, 3° | - | - |
| 1778011871 | 32.78° C | 57% | 1006.4 hPa | 0 mm | 0.89 m/s, 359° | - | - |
| 1778011569 | 32.22° C | 57% | 1006.5 hPa | 0 mm | 0.89 m/s, 263° | - | - |
| 1778011265 | 31.67° C | 59% | 1006.4 hPa | 0 mm | 0.89 m/s, 21° | - | - |
| 1778010961 | 31.67° C | 59% | 1006.6 hPa | 0 mm | 0.45 m/s, 26° | - | - |
| 1778010659 | 31.67° C | 59% | 1006.7 hPa | 0 mm | 1.34 m/s, 172° | - | - |
| 1778010356 | 32.22° C | 61% | 1006.5 hPa | 0 mm | 0.45 m/s, 165° | - | - |
| 1778010051 | 31.11° C | 62% | 1006.8 hPa | 0 mm | 0.45 m/s, 37° | - | - |
| 1778009749 | 31.11° C | 62% | 1006.5 hPa | 0 mm | 0.89 m/s, 108° | - | - |
| 1778009446 | 31.11° C | 63% | 1006.8 hPa | 0 mm | 0.89 m/s, 66° | - | - |
| 1778009144 | 31.11° C | 63% | 1006.6 hPa | 0 mm | 0.89 m/s, 170° | - | - |
| 1778008842 | 31.11° C | 63% | 1006.9 hPa | 0 mm | 0.89 m/s, 187° | - | - |
| 1778008540 | 30.56° C | 64% | 1006.7 hPa | 0 mm | 1.34 m/s, 139° | - | - |
| 1778008237 | 30° C | 65% | 1007 hPa | 0 mm | 0.89 m/s, 33° | - | - |
| 1778007936 | 29.44° C | 65% | 1006.9 hPa | 0 mm | 0.45 m/s, 134° | - | - |
| 1778007628 | 29.44° C | 65% | 1007 hPa | 0 mm | 1.79 m/s, 218° | - | - |
| 1778007325 | 29.44° C | 65% | 1007 hPa | 0 mm | 1.34 m/s, 217° | - | - |
| 1778007021 | 29.44° C | 66% | 1007 hPa | 0 mm | 0.45 m/s, 340° | - | - |
| 1778006718 | 28.89° C | 66% | 1007 hPa | 0 mm | 0.89 m/s, 36° | - | - |
| 1778006415 | 28.89° C | 66% | 1007 hPa | 0 mm | 1.34 m/s, 164° | - | - |
| 1778006112 | 29.44° C | 66% | 1007.1 hPa | 0 mm | 1.79 m/s, 0° | - | - |
| 1778005809 | 29.44° C | 66% | 1007.1 hPa | 0 mm | 0.45 m/s, 129° | - | - |
| 1778005506 | 28.89° C | 67% | 1007.2 hPa | 0 mm | 1.34 m/s, 218° | - | - |
| 1778005202 | 28.33° C | 67% | 1007.1 hPa | 0 mm | 0.89 m/s, 153° | - | - |
| 1778004899 | 28.89° C | 66% | 1007.3 hPa | 0 mm | 1.79 m/s, 161° | - | - |
* Rain latest hour (hover to see other rain measurements)
** Current wind speed in m/s (hover to see current wind gust speed)